Printer-friendly version

IAU Minor Planet Center

Minor Planet Center

(346) Hermentaria

Orbital Elements

The following orbital elements are taken from MPC 22200:
  (346) Hermentaria
Epoch 2002 Nov. 22.0 TT = JDT 2452600.5                 Goffin
M 216.69075              (2000.0)            P               Q
n   0.21093846     Peri.  290.34738     +0.91276522     -0.37906638
a   2.7948952      Node    92.17975     +0.40793412     +0.82655028
e   0.1031147      Incl.    8.76149     +0.02119912     +0.41608089
P   4.67           H    7.13          G   0.15
From 246 observations at 54 oppositions, 1892-1992, mean residual 0".94.
An explanation of the orbital elements is available.

These orbital elements are also available in forms suitable for loading into a number of popular planetarium-type software programs.


Ephemeris

The following ephemeris is at intervals of five days. A daily ephemeris covering the same time interval is also available.

Date    TT    R. A. (2000) Decl.     Delta      r     Elong.  Phase     V
 
2003 05 21    18 39.62   -21 50.6    2.046    2.898   140.3    12.9    11.8
2003 05 26    18 37.42   -22 03.9    2.000    2.893   145.6    11.4    11.6
2003 05 31    18 34.62   -22 18.3    1.958    2.888   151.1     9.8    11.5
2003 06 05    18 31.27   -22 33.5    1.923    2.883   156.7     8.0    11.4
2003 06 10    18 27.43   -22 49.4    1.894    2.878   162.4     6.1    11.3
2003 06 15    18 23.21   -23 05.6    1.872    2.873   168.1     4.2    11.2
2003 06 20    18 18.69   -23 21.8    1.856    2.868   174.0     2.1    11.0
2003 06 25    18 14.00   -23 37.7    1.847    2.863   179.7     0.1    10.8
2003 06 30    18 09.24   -23 53.2    1.845    2.858   174.3     2.0    11.0
2003 07 05    18 04.57   -24 08.0    1.850    2.853   168.5     4.1    11.1
2003 07 10    18 00.12   -24 22.0    1.861    2.848   162.7     6.1    11.2
2003 07 15    17 55.99   -24 35.1    1.879    2.843   157.0     8.0    11.3
2003 07 20    17 52.29   -24 47.4    1.904    2.838   151.4     9.9    11.4
2003 07 25    17 49.11   -24 58.9    1.934    2.833   145.9    11.6    11.5
2003 07 30    17 46.51   -25 09.6    1.969    2.827   140.5    13.2    11.6
2003 08 04    17 44.56   -25 19.7    2.009    2.822   135.3    14.7    11.7
2003 08 09    17 43.28   -25 29.2    2.054    2.817   130.2    16.0    11.8

Back to Bright Minor Planets

Astronomical Headlines Index


Valid HTML 4.01!